Humboldt, Iowa, United States (50548)
Lat: 42.72N, Lon: 94.22W
Wx Zone: IAZ024
Local Info
Past Weather Observations for Wednesday, November 19, 2014

NOTE: This archive is for the closest National Weather Service station to Humboldt. Information may differ from the station used for current weather conditions.

Click here for Long-term Archive

Time Weather Temperature Dewpoint Humidity Pressure Winds Precip Visibility
23:55
Clear
19°F / -7°C 10°F / -12°C 68% 30.09 in
(1019 mb)
W 8.1 mph
(W 13 kph)
- 10SM
23:35
Clear
19°F / -7°C 10°F / -12°C 68% 30.09 in
(1019 mb)
W 8.1 mph
(W 13 kph)
- 10SM
23:15
Clear
19°F / -7°C 10°F / -12°C 68% 30.09 in
(1019 mb)
W 8.1 mph
(W 13 kph)
- 10SM
22:55
Clear
19°F / -7°C 10°F / -12°C 68% 30.09 in
(1019 mb)
W 9.2 mph
(W 15 kph)
- 10SM
22:35
Partly Cloudy
21°F / -6°C 12°F / -11°C 68% 30.09 in
(1019 mb)
W 10.4 mph
(W 17 kph)
- 10SM
22:15
Overcast
21°F / -6°C 12°F / -11°C 68% 30.09 in
(1019 mb)
W 11.5 mph
(W 19 kph)
- 10SM
21:55
Overcast
21°F / -6°C 12°F / -11°C 68% 30.09 in
(1019 mb)
W 9.2 mph
(W 15 kph)
- 10SM
21:35
Overcast
21°F / -6°C 12°F / -11°C 68% 30.09 in
(1019 mb)
W 8.1 mph
(W 13 kph)
- 10SM
21:15
Overcast
21°F / -6°C 12°F / -11°C 68% 30.09 in
(1019 mb)
WNW 8.1 mph
(WNW 13 kph)
- 10SM
20:55
Overcast
21°F / -6°C 12°F / -11°C 68% 30.09 in
(1019 mb)
W 6.9 mph
(W 11 kph)
- 10SM
20:35
Overcast
19°F / -7°C 10°F / -12°C 68% 30.09 in
(1019 mb)
W 6.9 mph
(W 11 kph)
- 10SM
20:15
Overcast
19°F / -7°C 10°F / -12°C 68% 30.09 in
(1019 mb)
SSW 5.8 mph
(SSW 9 kph)
- 10SM
19:55
Overcast
18°F / -8°C 10°F / -12°C 73% 30.09 in
(1019 mb)
SSW 8.1 mph
(SSW 13 kph)
- 10SM
19:35
Mostly Cloudy
18°F / -8°C 9°F / -13°C 68% 30.09 in
(1019 mb)
SSW 5.8 mph
(SSW 9 kph)
- 10SM
19:15
Partly Cloudy
18°F / -8°C 9°F / -13°C 68% 30.09 in
(1019 mb)
SSW 4.6 mph
(SSW 7 kph)
- 10SM
18:55
Clear
18°F / -8°C 9°F / -13°C 68% 30.09 in
(1019 mb)
W 6.9 mph
(W 11 kph)
- 10SM
18:35
Clear
18°F / -8°C 9°F / -13°C 68% 30.09 in
(1019 mb)
W 6.9 mph
(W 11 kph)
- 10SM
18:15
Clear
19°F / -7°C 9°F / -13°C 63% 30.09 in
(1019 mb)
W 8.1 mph
(W 13 kph)
- 10SM
17:55
Clear
19°F / -7°C 10°F / -12°C 68% 30.06 in
(1018 mb)
W 8.1 mph
(W 13 kph)
- 10SM
17:35
Partly Cloudy
21°F / -6°C 10°F / -12°C 63% 30.06 in
(1018 mb)
W 8.1 mph
(W 13 kph)
- 10SM
17:15
Mostly Cloudy
23°F / -5°C 10°F / -12°C 58% 30.06 in
(1018 mb)
W 9.2 mph
(W 15 kph)
- 10SM
16:55
Overcast
23°F / -5°C 12°F / -11°C 63% 30.06 in
(1018 mb)
W 11.5 mph
(W 19 kph)
- 10SM
16:35
Overcast
23°F / -5°C 12°F / -11°C 63% 30.06 in
(1018 mb)
W 10.4 mph
(W 17 kph)
- 10SM
16:15
Overcast
23°F / -5°C 12°F / -11°C 63% 30.06 in
(1018 mb)
W 9.2 mph
(W 15 kph)
- 10SM
15:55
Overcast
25°F / -4°C 12°F / -11°C 59% 30.04 in
(1017 mb)
NW 15 mph
(NW 24 kph)
- 10SM
15:35
Overcast
25°F / -4°C 12°F / -11°C 59% 30.04 in
(1017 mb)
NW 15 mph
(NW 24 kph)
- 10SM
15:15
Overcast
25°F / -4°C 12°F / -11°C 59% 30.04 in
(1017 mb)
WNW 12.7 mph
(WNW 20 kph)
- 10SM
14:55
Overcast
25°F / -4°C 12°F / -11°C 59% 30.04 in
(1017 mb)
W 15 mph
(W 24 kph)
- 7SM
14:35
Overcast
25°F / -4°C 12°F / -11°C 59% 30.04 in
(1017 mb)
WNW 9.2 mph
(WNW 15 kph)
- 10SM
14:15
Overcast
25°F / -4°C 14°F / -10°C 63% 30.04 in
(1017 mb)
W 12.7 mph
(W 20 kph)
- 10SM
13:55
Overcast
25°F / -4°C 12°F / -11°C 59% 30.04 in
(1017 mb)
NW 12.7 mph
(NW 20 kph)
- 9SM
13:35
Overcast
25°F / -4°C 12°F / -11°C 59% 30.04 in
(1017 mb)
NW 11.5 mph
(NW 19 kph)
- 10SM
13:15
Overcast
25°F / -4°C 12°F / -11°C 59% 30.04 in
(1017 mb)
NW 10.4 mph
(NW 17 kph)
- 10SM
12:55
Overcast
25°F / -4°C 12°F / -11°C 59% 30.04 in
(1017 mb)
NW 11.5 mph
(NW 19 kph)
- 10SM
12:35
Mostly Cloudy
25°F / -4°C 12°F / -11°C 59% 30.04 in
(1017 mb)
NW 15 mph
(NW 24 kph)
- 10SM
12:15
Mostly Cloudy
25°F / -4°C 14°F / -10°C 63% 30.01 in
(1016 mb)
NW 13.8 mph
(NW 22 kph)
- 10SM
11:55
Overcast
25°F / -4°C 12°F / -11°C 59% 30.04 in
(1017 mb)
NW 12.7 mph
(NW 20 kph)
- 10SM
11:35
Overcast
23°F / -5°C 12°F / -11°C 63% 30.04 in
(1017 mb)
NW 17.3 mph
(NW 28 kph)
- 10SM
11:15
Overcast
23°F / -5°C 12°F / -11°C 63% 30.04 in
(1017 mb)
NW 15 mph
(NW 24 kph)
- 10SM
10:55
Overcast
23°F / -5°C 12°F / -11°C 63% 30.04 in
(1017 mb)
NW 13.8 mph
(NW 22 kph)
- 10SM
10:35
Overcast
21°F / -6°C 12°F / -11°C 68% 30.04 in
(1017 mb)
NW 15 mph
(NW 24 kph)
- 10SM
10:15
Overcast
21°F / -6°C 12°F / -11°C 68% 30.04 in
(1017 mb)
NW 16.1 mph
(NW 26 kph)
- 10SM
09:55
Overcast
21°F / -6°C 10°F / -12°C 63% 30.01 in
(1016 mb)
NW 11.5 mph
(NW 19 kph)
- 10SM
09:35
Overcast
21°F / -6°C 10°F / -12°C 63% 30.01 in
(1016 mb)
NW 13.8 mph
(NW 22 kph)
- 10SM
09:15
Overcast
21°F / -6°C 12°F / -11°C 68% 30.01 in
(1016 mb)
NW 13.8 mph
(NW 22 kph)
- 10SM
08:55
Overcast
21°F / -6°C 12°F / -11°C 68% 29.98 in
(1015 mb)
NW 16.1 mph
(NW 26 kph)
- 4SM
08:35
Overcast
21°F / -6°C 10°F / -12°C 63% 29.98 in
(1015 mb)
NW 10.4 mph
(NW 17 kph)
- 10SM
08:15
Overcast
21°F / -6°C 10°F / -12°C 63% 29.98 in
(1015 mb)
NW 12.7 mph
(NW 20 kph)
- 10SM
07:55
Overcast
21°F / -6°C 12°F / -11°C 68% 29.95 in
(1014 mb)
NW 12.7 mph
(NW 20 kph)
- 10SM
07:35
Overcast
21°F / -6°C 12°F / -11°C 68% 29.95 in
(1014 mb)
NW 12.7 mph
(NW 20 kph)
- 10SM
07:15
Overcast
21°F / -6°C 10°F / -12°C 63% 29.95 in
(1014 mb)
NW 10.4 mph
(NW 17 kph)
- 10SM
06:55
Overcast
21°F / -6°C 10°F / -12°C 63% 29.92 in
(1013 mb)
NW 12.7 mph
(NW 20 kph)
- 10SM
06:35
Overcast
21°F / -6°C 12°F / -11°C 68% 29.92 in
(1013 mb)
NW 10.4 mph
(NW 17 kph)
- 10SM
06:15
Overcast
21°F / -6°C 10°F / -12°C 63% 29.92 in
(1013 mb)
NW 10.4 mph
(NW 17 kph)
- 10SM
05:55
Overcast
21°F / -6°C 12°F / -11°C 68% 29.89 in
(1012 mb)
NW 10.4 mph
(NW 17 kph)
- 10SM
05:35
Overcast
23°F / -5°C 12°F / -11°C 63% 29.89 in
(1012 mb)
NW 16.1 mph
(NW 26 kph)
- 10SM
05:15
Overcast
23°F / -5°C 12°F / -11°C 63% 29.86 in
(1011 mb)
NW 12.7 mph
(NW 20 kph)
- 10SM
04:55
Overcast
27°F / -3°C 18°F / -8°C 69% 29.83 in
(1010 mb)
NW 12.7 mph
(NW 20 kph)
- 10SM
04:35
Overcast
28°F / -2°C 18°F / -8°C 64% 29.83 in
(1010 mb)
NW 15 mph
(NW 24 kph)
- 10SM
04:15
Overcast
28°F / -2°C 19°F / -7°C 69% 29.8 in
(1009 mb)
NW 18.4 mph
(NW 30 kph)
- 10SM
03:55
Overcast
28°F / -2°C 19°F / -7°C 69% 29.8 in
(1009 mb)
NW 16.1 mph
(NW 26 kph)
- 10SM
03:35
Overcast
28°F / -2°C 19°F / -7°C 69% 29.8 in
(1009 mb)
NW 12.7 mph
(NW 20 kph)
- 10SM
03:15
Overcast
28°F / -2°C 19°F / -7°C 69% 29.8 in
(1009 mb)
NW 11.5 mph
(NW 19 kph)
- 10SM
02:55
Overcast
27°F / -3°C 19°F / -7°C 74% 29.8 in
(1009 mb)
NW 11.5 mph
(NW 19 kph)
- 10SM
02:35
Overcast
25°F / -4°C 18°F / -8°C 74% 29.77 in
(1008 mb)
WNW 10.4 mph
(WNW 17 kph)
- 10SM
02:15
Overcast
21°F / -6°C 16°F / -9°C 80% 29.77 in
(1008 mb)
W 5.8 mph
(W 9 kph)
- 10SM
01:55
Overcast
19°F / -7°C 16°F / -9°C 86% 29.77 in
(1008 mb)
W 3.5 mph
(W 6 kph)
- 10SM
01:35
Mostly Cloudy
18°F / -8°C 10°F / -12°C 73% 29.77 in
(1008 mb)
Calm - 10SM
01:15
Partly Cloudy
18°F / -8°C 12°F / -11°C 79% 29.77 in
(1008 mb)
SW 3.5 mph
(SW 6 kph)
- 10SM
00:55
Clear
18°F / -8°C 12°F / -11°C 79% 29.77 in
(1008 mb)
Calm - 10SM
00:35
Partly Cloudy
19°F / -7°C 12°F / -11°C 73% 29.77 in
(1008 mb)
SW 4.6 mph
(SW 7 kph)
- 10SM
00:15
Partly Cloudy
19°F / -7°C 12°F / -11°C 73% 29.77 in
(1008 mb)
SSE 4.6 mph
(SSE 7 kph)
- 10SM
Time Weather Temperature Dewpoint Humidity Pressure Winds Precip Visibility


Weather for websites

WeatherForYou.com, LLC is not responsible for any damages or problems caused by this service. Current weather conditions are obtained from the closest station including government and personal stations which may have varying degrees of accuracy. Weather forecasts are derived from the NOAA NDFD. Like all things, this site belongs to Jesus Christ... He just trusts me to maintain it. If you have any questions or comments email webmaster@weatherforyou.com

Copyright © 2014, WeatherForYou.com LLC. All rights reserved.